Location: Arnolds Mill
(42.3415°N, 73.5951°W)
Time: 10:13:55
(UTC+00:00)

BlueWalker 3 - Pass Details

Date: 23 June 2024
Orbit: 480 x 492 km, 53.2° (Epoch: 13 July)

Event Time Altitude Azimuth Distance (km) Brightness Sun altitude
Rises 07:20:03 0° 303° (WNW) 2,539 5.5 -16.4°
Reaches altitude 10° 07:22:15 10° 299° (WNW) 1,656 4.5 -16.2°
Maximum altitude 07:25:53 51° 223° (SW) 611 1.9 -15.8°
Drops below altitude 10° 07:29:30 10° 147° (SSE) 1,650 4.3 -15.4°
Sets 07:31:41 0° 142° (SE) 2,527 5.3 -15.1°
